User: anonymous   Login
Location: Unspecified
(0.0000°N, 0.0000°E)
Time: 01:04:47
(UTC+00:00)
Language:

USA 184 - Orbit

View from above orbital plane
View from above orbital plane
View from above satellite
View from above satellite

Ground track
Ground track

The orbit data is extracted from the following two-line orbital elements,

1 29249U 06027A   16135.79485619 0.00000630  00000-0  00000-0 0    08
2 29249  63.7667 331.4367 7129897 267.2211  16.8697  2.00615000    05
Epoch (UTC): 14 May 2016 19:04:35
Eccentricity: 0.7129897
inclination: 63.7667°
perigee height: 1243 km
apogee height: 39111 km
right ascension of ascending node: 331.4367°
argument of perigee: 267.2211°
revolutions per day: 2.00615000
mean anomaly at epoch: 16.8697°
orbit number at epoch: 0

The dashed part of the orbit path shows where the satellite is in the earth's shadow,  

DLR